Flag for U.S.A. Weather past 2 weeks in Helena, Montana, U.S.A.

Now
67 °F

Sunny.


Feels Like: 67 °F
Forecast: 52 / 82 °F
Wind: No wind

Location: Helena Regional Airport

Current Time: Aug 27, 2014 at 11:45:09 AM

Latest Report: Aug 27, 2014 at 10:53 AM


Visibility: 10 mi

Pressure: 30.11 "Hg

Humidity: 49%

Dew point: 47 °F

Location of HelenaLocation

Historic Weather in Helena — Graph

°F

Helena temperature yesterday

Maximum temperature yesterday: 80 °F (at 3:53 PM)
Minimum temperature yesterday: 47 °F (at 4:53 AM)
Average temperature yesterday: 63 °F

Past Weeks' High & Low Weather Summary

 TemperatureHumidityPressure
High91 °F (Aug 12, 1:53 PM)93% (Aug 23, 12:53 AM)30.22 "Hg (Aug 23, 12:53 AM)
Low43 °F (Aug 25, 6:53 AM)14% (Aug 18, 4:53 PM)29.64 "Hg (Aug 19, 4:53 PM)
Average65 °F60%30.02 "Hg
* Reported Aug 12 9:53 AM — Aug 27 9:53 AM, Helena, Weather by CustomWeather, © 2014

Note: Actual official high and low records may vary slightly from our data, if they occured in-between our weather recording intervals... More about our weather records

Advertising

Helena weather history for previous 24 hours

 ConditionsComfort  
Time TempWeatherWind HumidityBarometerVisibility
9:53 AM
Aug 27
63 °FSunny.3 mph56%30.13 "Hg10 mi
8:53 AM58 °FSunny.No wind65%30.14 "Hg10 mi
7:53 AM54 °FSunny.No wind72%30.14 "Hg10 mi
6:53 AM49 °FClear.No wind84%30.13 "Hg10 mi
5:53 AM52 °FClear.3 mph77%30.11 "Hg10 mi
4:53 AM53 °FClear.No wind74%30.10 "Hg10 mi
3:53 AM55 °FClear.No wind69%30.09 "Hg10 mi
2:53 AM56 °FClear.No wind67%30.09 "Hg10 mi
1:53 AM57 °FClear.3 mph64%30.09 "Hg10 mi
12:53 AM59 °FClear.3 mph60%30.09 "Hg10 mi
11:53 PM
Aug 26
59 °FClear.3 mph62%30.09 "Hg10 mi
10:53 PM63 °FClear.No wind54%30.10 "Hg10 mi
9:53 PM64 °FClear.7 mph50%30.10 "Hg10 mi
8:53 PM70 °FSunny.5 mph39%30.08 "Hg10 mi
7:53 PM75 °FSunny.5 mph34%30.05 "Hg10 mi
6:53 PM79 °FSunny.5 mph30%30.04 "Hg10 mi
5:53 PM79 °FSunny.6 mph21%30.04 "Hg10 mi
4:53 PM80 °FSunny.8 mph20%30.05 "Hg10 mi
3:53 PM80 °FSunny.13 mph22%30.06 "Hg10 mi
2:53 PM77 °FSunny.No wind31%30.08 "Hg10 mi
1:53 PM75 °FSunny.No wind34%30.10 "Hg10 mi
12:53 PM72 °FSunny.6 mph43%30.12 "Hg10 mi
11:53 AM68 °FSunny.5 mph53%30.15 "Hg10 mi
Weather by CustomWeather, © 2014

See weather overviewHow to use our weather pages